Location: Unspecified
(51.0950°N, 12.9690°E)
Time: 09:18:09
(UTC+00:00)

PCSat - Pass Details

Date: 22 April 2024
Orbit: 783 x 792 km, 67.1° (Epoch: 24 May)

Event Time Altitude Azimuth Distance (km) Brightness Sun altitude
Rises 20:53:24 0° 270° (W) 3,284 13.3 -20.1°
Reaches altitude 10° 20:56:24 10° 287° (WNW) 2,359 12.7 -20.3°
Maximum altitude 21:00:28 21° 336° (NNW) 1,717 12.2 -20.7°
Drops below altitude 10° 21:04:33 10° 25° (NNE) 2,369 12.4 -21.0°
Sets 21:07:35 0° 41° (NE) 3,301 13.0 -21.3°
